GW2967 Weather Reports


Display with metric or nautical units.
time (UTC)temp
F
wind
direction
speed
MPH
gust
MPH
rain 1hr
in
rain 24hr
in
rain mn
in
humidity
%
barometer
mb
20240526002012 70 0 0.0 0.0 0.00 0.00 0.00 65 1010.6
20240526001515 70 0 0.0 0.0 0.00 0.00 0.00 65 1010.7
20240526001012 70 0 0.0 0.0 0.00 0.00 0.00 64 1010.7
20240526000514 70 0 0.0 0.0 0.00 0.00 0.00 64 1010.6
20240526000039 70 0 0.0 0.0 0.00 0.00 0.00 65 1010.6
20240525235512 70 0 0.0 0.0 0.00 0.00 0.00 65 1010.6
20240525235011 71 0 0.0 0.0 0.00 0.00 0.00 65 1010.6
20240525234516 71 0 0.0 0.0 0.00 0.00 0.00 65 1010.6
20240525234012 71 0 0.0 0.0 0.00 0.00 0.00 64 1010.6
20240525233518 72 0 0.0 0.0 0.00 0.00 0.00 63 1010.5
20240525233014 72 0 0.0 0.0 0.00 0.00 0.00 62 1010.6
20240525232512 72 0 0.0 1.0 0.00 0.00 0.00 62 1010.4
20240525232011 72 0 0.0 1.0 0.00 0.00 0.00 64 1010.3
20240525231514 73 212 0.0 1.0 0.00 0.00 0.00 63 1010.1
20240525231012 73 0 0.0 0.0 0.00 0.00 0.00 60 1010.0
20240525230510 73 0 0.0 0.0 0.00 0.00 0.00 58 1009.8
20240525230024 73 0 0.0 1.0 0.00 0.00 0.00 59 1009.8
20240525225514 73 0 0.0 1.0 0.00 0.00 0.00 59 1009.7
20240525225013 74 0 0.0 0.0 0.00 0.00 0.00 59 1009.7
20240525224516 74 0 0.0 0.0 0.00 0.00 0.00 60 1009.7
20240525224014 75 0 0.0 0.0 0.00 0.00 0.00 60 1009.6
20240525223514 75 0 0.0 0.0 0.00 0.00 0.00 55 1009.7
20240525223020 75 0 0.0 0.0 0.00 0.00 0.00 56 1009.7
20240525222514 75 0 0.0 0.0 0.00 0.00 0.00 59 1009.8
20240525222017 76 0 0.0 0.0 0.00 0.00 0.00 58 1009.9
20240525221515 77 0 0.0 0.0 0.00 0.00 0.00 58 1009.8
20240525221014 77 0 0.0 0.0 0.00 0.00 0.00 55 1009.7
20240525220514 78 0 0.0 0.0 0.00 0.00 0.00 53 1009.7
20240525220017 78 0 0.0 0.0 0.00 0.00 0.00 51 1009.7
20240525215511 78 0 0.0 1.0 0.00 0.00 0.00 48 1009.7
20240525215013 78 0 0.0 1.0 0.00 0.00 0.00 50 1009.8
20240525214517 79 0 0.0 1.0 0.00 0.00 0.00 47 1009.9
20240525214014 79 0 0.0 1.0 0.00 0.00 0.00 47 1009.9
20240525213514 80 212 0.0 1.0 0.00 0.00 0.00 40 1009.9
20240525213013 81 197 0.0 6.0 0.00 0.00 0.00 39 1009.8
20240525212513 82 186 0.0 6.0 0.00 0.00 0.00 34 1009.8
20240525212013 82 186 1.0 6.0 0.00 0.00 0.00 31 1009.8
20240525211518 83 150 0.0 2.0 0.00 0.00 0.00 32 1009.8
20240525211014 84 215 1.0 3.0 0.00 0.00 0.00 34 1009.9
20240525210514 84 0 0.0 3.0 0.00 0.00 0.00 34 1009.8
20240525210017 84 82 0.0 4.0 0.00 0.00 0.00 31 1009.7
20240525205514 84 115 1.0 4.0 0.00 0.00 0.00 31 1009.7
20240525205016 84 247 1.0 3.0 0.00 0.00 0.00 29 1009.7
20240525204517 84 270 0.0 4.0 0.00 0.00 0.00 35 1009.8
20240525204014 83 0 0.0 4.0 0.00 0.00 0.00 32 1009.8
20240525203510 83 288 1.0 4.0 0.00 0.00 0.00 32 1009.8
20240525203017 84 243 1.0 5.0 0.00 0.00 0.00 33 1009.8
20240525202511 85 256 1.0 5.0 0.00 0.00 0.00 30 1009.8
20240525202014 86 216 1.0 5.0 0.00 0.00 0.00 31 1009.7
20240525201513 85 114 0.0 3.0 0.00 0.00 0.00 32 1009.8
20240525201013 85 230 1.0 3.0 0.00 0.00 0.00 32 1009.7
20240525200514 85 241 1.0 3.0 0.00 0.00 0.00 34 1009.7
20240525200015 85 322 1.0 3.0 0.00 0.00 0.00 30 1009.8
20240525195514 85 228 1.0 3.0 0.00 0.00 0.00 32 1009.9
20240525195013 85 250 1.0 3.0 0.00 0.00 0.00 34 1009.8
20240525194524 85 214 0.0 4.0 0.00 0.00 0.00 31 1009.7
20240525194011 85 233 1.0 4.0 0.00 0.00 0.00 31 1009.9
20240525193514 85 62 2.0 4.0 0.00 0.00 0.00 33 1009.9
20240525193016 85 180 2.0 5.0 0.00 0.00 0.00 31 1010.0
20240525192513 85 141 2.0 6.0 0.00 0.00 0.00 36 1010.2
20240525192013 85 124 1.0 6.0 0.00 0.00 0.00 31 1010.2
20240525191518 85 190 1.0 5.0 0.00 0.00 0.00 37 1010.3
20240525191012 84 245 2.0 5.0 0.00 0.00 0.00 33 1010.3
20240525190511 84 207 1.0 2.0 0.00 0.00 0.00 32 1010.4
20240525190022 84 20 0.0 3.0 0.00 0.00 0.00 30 1010.3
20240525185516 83 225 1.0 3.0 0.00 0.00 0.00 33 1010.4
20240525185011 83 209 1.0 4.0 0.00 0.00 0.00 34 1010.5
20240525184517 84 0 1.0 4.0 0.00 0.00 0.00 31 1010.4
20240525184014 84 201 1.0 4.0 0.00 0.00 0.00 33 1010.6
20240525183510 84 207 1.0 5.0 0.00 0.00 0.00 33 1010.7
20240525183015 85 170 1.0 5.0 0.00 0.00 0.00 35 1010.7
20240525182514 85 101 1.0 4.0 0.00 0.00 0.00 34 1010.7
20240525182016 85 237 1.0 4.0 0.00 0.00 0.00 32 1010.8
20240525181516 85 224 1.0 4.0 0.00 0.00 0.00 37 1010.8
20240525181013 84 240 1.0 4.0 0.00 0.00 0.00 39 1010.8
20240525180513 84 203 2.0 5.0 0.00 0.00 0.00 35 1010.8
20240525180015 84 175 1.0 5.0 0.00 0.00 0.00 36 1010.9
20240525175514 84 222 1.0 6.0 0.00 0.00 0.00 37 1011.0
20240525175014 84 80 2.0 6.0 0.00 0.00 0.00 40 1011.0
20240525174515 84 276 2.0 6.0 0.00 0.00 0.00 36 1011.1
20240525174015 84 208 1.0 3.0 0.00 0.00 0.00 40 1011.1
20240525173513 84 203 0.0 3.0 0.00 0.00 0.00 40 1011.2
20240525173015 83 218 1.0 2.0 0.00 0.00 0.00 41 1011.2
20240525172513 83 214 1.0 3.0 0.00 0.00 0.00 44 1011.1
20240525172011 83 214 0.0 3.0 0.00 0.00 0.00 45 1011.0
20240525171517 82 124 1.0 3.0 0.00 0.00 0.00 43 1011.3
20240525171012 82 230 1.0 4.0 0.00 0.00 0.00 43 1011.2
20240525170511 82 326 0.0 4.0 0.00 0.00 0.00 38 1011.3
20240525170020 82 233 1.0 3.0 0.00 0.00 0.00 41 1011.4
20240525165517 82 150 1.0 3.0 0.00 0.00 0.00 39 1011.4
20240525165014 82 179 1.0 3.0 0.00 0.00 0.00 40 1011.5
20240525164518 81 228 1.0 3.0 0.00 0.00 0.00 40 1011.5
20240525164014 81 190 0.0 3.0 0.00 0.00 0.00 42 1011.5
20240525163514 81 209 1.0 6.0 0.00 0.00 0.00 41 1011.6
20240525163013 80 263 1.0 6.0 0.00 0.00 0.00 44 1011.6
20240525162514 80 123 2.0 4.0 0.00 0.00 0.00 42 1011.6
20240525162013 80 138 1.0 4.0 0.00 0.00 0.00 46 1011.6
20240525161518 80 87 1.0 4.0 0.00 0.00 0.00 43 1011.6
20240525161014 80 217 1.0 4.0 0.00 0.00 0.00 40 1011.7
20240525160514 80 249 1.0 4.0 0.00 0.00 0.00 43 1011.8
20240525160024 80 96 1.0 4.0 0.00 0.00 0.00 44 1011.9
20240525155513 79 91 1.0 4.0 0.00 0.00 0.00 46 1012.0
20240525155017 79 108 1.0 3.0 0.00 0.00 0.00 44 1012.0
20240525154518 79 86 1.0 4.0 0.00 0.00 0.00 42 1012.1
20240525154014 79 152 1.0 4.0 0.00 0.00 0.00 46 1012.3
20240525153512 78 131 0.0 3.0 0.00 0.00 0.00 44 1012.2
20240525153019 78 13 0.0 3.0 0.00 0.00 0.00 44 1012.2
20240525152513 77 229 1.0 3.0 0.00 0.00 0.00 44 1012.2
20240525152013 77 186 1.0 3.0 0.00 0.00 0.00 46 1012.3
20240525151518 77 226 1.0 3.0 0.00 0.00 0.00 46 1012.4
20240525151014 77 206 0.0 2.0 0.00 0.00 0.00 45 1012.4
20240525150517 76 89 0.0 2.0 0.00 0.00 0.00 47 1012.4
20240525150018 76 145 0.0 2.0 0.00 0.00 0.00 45 1012.3
20240525145513 75 196 0.0 2.0 0.00 0.00 0.00 45 1012.4
20240525145014 74 181 0.0 2.0 0.00 0.00 0.00 46 1012.4
20240525144518 74 221 1.0 2.0 0.00 0.00 0.00 47 1012.4
20240525144013 74 0 0.0 2.0 0.00 0.00 0.00 47 1012.5
20240525143511 73 0 0.0 2.0 0.00 0.00 0.00 47 1012.6
20240525143017 73 0 0.0 2.0 0.00 0.00 0.00 50 1012.7
20240525142514 73 43 0.0 3.0 0.00 0.00 0.00 51 1012.7
20240525142012 73 217 0.0 3.0 0.00 0.00 0.00 48 1012.7
20240525141517 74 97 1.0 3.0 0.00 0.00 0.00 46 1012.5
20240525141015 74 192 0.0 3.0 0.00 0.00 0.00 46 1012.7
20240525140514 74 0 0.0 3.0 0.00 0.00 0.00 48 1012.7
20240525140021 74 214 0.0 3.0 0.00 0.00 0.00 47 1012.8
20240525135513 74 166 0.0 3.0 0.00 0.00 0.00 46 1012.9
20240525135011 73 212 1.0 3.0 0.00 0.00 0.00 45 1013.0
20240525134518 73 103 0.0 2.0 0.00 0.00 0.00 47 1013.1
20240525134011 72 0 0.0 2.0 0.00 0.00 0.00 49 1013.0
20240525133510 72 255 0.0 2.0 0.00 0.00 0.00 50 1013.0
20240525133017 72 108 1.0 2.0 0.00 0.00 0.00 50 1013.1
20240525132517 71 181 0.0 0.0 0.00 0.00 0.00 57 1013.1
20240525132017 70 0 0.0 1.0 0.00 0.00 0.00 58 1013.1
20240525131515 69 0 0.0 1.0 0.00 0.00 0.00 60 1013.1
20240525131016 68 0 0.0 1.0 0.00 0.00 0.00 63 1013.0
20240525130517 67 130 0.0 2.0 0.00 0.00 0.00 62 1013.1
20240525130017 66 160 0.0 2.0 0.00 0.00 0.00 62 1013.0
20240525125513 66 195 0.0 2.0 0.00 0.00 0.00 63 1013.0
20240525125013 65 162 0.0 1.0 0.00 0.00 0.00 64 1013.0
20240525124533 65 162 0.0 1.0 0.00 0.00 0.00 65 1012.9
20240525124014 64 0 0.0 1.0 0.00 0.00 0.00 66 1012.8
20240525123513 63 0 0.0 2.0 0.00 0.00 0.00 68 1012.7
20240525123017 63 0 0.0 2.0 0.00 0.00 0.00 68 1012.8
20240525122514 63 242 1.0 1.0 0.00 0.00 0.00 67 1012.8
20240525122015 62 0 0.0 1.0 0.00 0.00 0.00 70 1012.7
20240525121514 61 0 0.0 1.0 0.00 0.00 0.00 69 1012.8
20240525121017 61 200 0.0 1.0 0.00 0.00 0.00 69 1012.8
20240525120516 61 0 0.0 1.0 0.00 0.00 0.00 70 1012.7
20240525120035 61 0 0.0 1.0 0.00 0.00 0.00 70 1012.5
20240525115514 61 0 0.0 1.0 0.00 0.00 0.00 71 1012.6
20240525115013 60 0 0.0 1.0 0.00 0.00 0.00 72 1012.5
20240525114533 59 0 0.0 0.0 0.00 0.00 0.00 74 1012.5
20240525114014 59 0 0.0 0.0 0.00 0.00 0.00 75 1012.4
20240525113519 58 0 0.0 0.0 0.00 0.00 0.00 77 1012.5
20240525113018 57 0 0.0 0.0 0.00 0.00 0.00 78 1012.5
20240525112514 56 0 0.0 0.0 0.00 0.00 0.00 78 1012.5
20240525112016 56 0 0.0 0.0 0.00 0.00 0.00 80 1012.5
20240525111518 55 0 0.0 0.0 0.00 0.00 0.00 81 1012.6
20240525111011 54 0 0.0 0.0 0.00 0.00 0.00 81 1012.6
20240525110516 54 0 0.0 1.0 0.00 0.00 0.00 82 1012.5
20240525110018 54 0 0.0 1.0 0.00 0.00 0.00 82 1012.5
20240525105511 54 0 0.0 0.0 0.00 0.00 0.00 82 1012.4
20240525105013 53 0 0.0 1.0 0.00 0.00 0.00 83 1012.4
20240525104514 52 142 0.0 1.0 0.00 0.00 0.00 82 1012.5
20240525104013 52 0 0.0 0.0 0.00 0.00 0.00 82 1012.4
20240525103517 51 0 0.0 0.0 0.00 0.00 0.00 82 1012.8
20240525103017 51 0 0.0 0.0 0.00 0.00 0.00 82 1012.8
20240525102514 51 0 0.0 0.0 0.00 0.00 0.00 82 1012.7
20240525102011 51 0 0.0 0.0 0.00 0.00 0.00 82 1012.6
20240525101515 51 0 0.0 0.0 0.00 0.00 0.00 82 1012.5
20240525101013 50 0 0.0 0.0 0.00 0.00 0.00 82 1012.6
20240525100510 50 0 0.0 0.0 0.00 0.00 0.00 82 1012.4
20240525100017 51 0 0.0 0.0 0.00 0.00 0.00 82 1012.4
20240525095513 51 0 0.0 0.0 0.00 0.00 0.00 82 1012.3
20240525095015 51 0 0.0 0.0 0.00 0.00 0.00 82 1012.2
20240525094515 51 0 0.0 1.0 0.00 0.00 0.00 82 1012.2
20240525094016 51 0 0.0 1.0 0.00 0.00 0.00 82 1012.1
20240525093514 51 0 0.0 0.0 0.00 0.00 0.00 82 1012.0
20240525093017 51 0 0.0 1.0 0.00 0.00 0.00 82 1012.0
20240525092513 51 0 0.0 1.0 0.00 0.00 0.00 82 1011.9
20240525092013 51 214 0.0 1.0 0.00 0.00 0.00 82 1011.8
20240525091521 51 0 0.0 1.0 0.00 0.00 0.00 82 1011.7
20240525091013 51 0 0.0 1.0 0.00 0.00 0.00 82 1011.8
20240525090513 51 0 0.0 0.0 0.00 0.00 0.00 82 1011.7
20240525090022 51 0 0.0 1.0 0.00 0.00 0.00 82 1011.7
20240525085514 51 0 0.0 1.0 0.00 0.00 0.00 82 1011.8
20240525085014 51 0 0.0 1.0 0.00 0.00 0.00 82 1011.7
20240525084515 51 0 0.0 0.0 0.00 0.00 0.00 82 1011.8
20240525084014 51 0 0.0 0.0 0.00 0.00 0.00 82 1011.7
20240525083513 52 0 0.0 0.0 0.00 0.00 0.00 82 1011.6
20240525083016 52 0 0.0 0.0 0.00 0.00 0.00 82 1011.7
20240525082514 52 0 0.0 0.0 0.00 0.00 0.00 82 1011.6
20240525082014 52 0 0.0 0.0 0.00 0.00 0.00 82 1011.6
20240525081516 52 0 0.0 0.0 0.00 0.00 0.00 82 1011.7
20240525081014 52 0 0.0 0.0 0.00 0.00 0.00 82 1011.6
20240525080514 52 0 0.0 0.0 0.00 0.00 0.00 81 1011.6
20240525080032 52 0 0.0 0.0 0.00 0.00 0.00 81 1011.5
20240525075514 52 0 0.0 0.0 0.00 0.00 0.00 80 1011.5
20240525075010 52 0 0.0 0.0 0.00 0.00 0.00 80 1011.4
20240525074533 52 0 0.0 0.0 0.00 0.00 0.00 80 1011.3
20240525074010 52 0 0.0 0.0 0.00 0.00 0.00 80 1011.4
20240525073513 53 0 0.0 0.0 0.00 0.00 0.00 80 1011.2
20240525073024 53 0 0.0 0.0 0.00 0.00 0.00 80 1011.3
20240525072517 53 0 0.0 0.0 0.00 0.00 0.00 80 1011.3
20240525072014 53 0 0.0 0.0 0.00 0.00 0.00 80 1011.4
20240525071527 53 0 0.0 0.0 0.00 0.00 0.00 79 1011.5
20240525071013 53 0 0.0 0.0 0.00 0.00 0.00 79 1011.5
20240525070513 53 0 0.0 0.0 0.00 0.00 0.00 77 1011.5
20240525070022 53 0 0.0 0.0 0.00 0.00 0.00 77 1011.6
20240525065515 53 0 0.0 0.0 0.00 0.00 0.00 77 1011.6
20240525065014 54 0 0.0 0.0 0.00 0.00 0.00 77 1011.7
20240525064518 54 0 0.0 0.0 0.00 0.00 0.00 77 1011.7
20240525064014 54 0 0.0 0.0 0.00 0.00 0.00 76 1011.7
20240525063512 54 0 0.0 0.0 0.00 0.00 0.00 76 1011.6
20240525063021 54 0 0.0 0.0 0.00 0.00 0.00 76 1011.7
20240525062514 54 0 0.0 0.0 0.00 0.00 0.00 76 1011.9
20240525062013 54 0 0.0 1.0 0.00 0.00 0.00 75 1011.9
20240525061523 55 0 0.0 1.0 0.00 0.00 0.00 76 1012.0
20240525061011 55 0 0.0 1.0 0.00 0.00 0.00 76 1012.0
20240525060513 55 0 0.0 1.0 0.00 0.00 0.00 76 1012.0
20240525060021 55 0 0.0 1.0 0.00 0.00 0.00 76 1011.9
20240525055514 55 0 0.0 1.0 0.00 0.00 0.00 76 1011.8
20240525055014 55 0 0.0 1.0 0.00 0.00 0.00 76 1011.7
20240525054520 55 0 0.0 1.0 0.00 0.00 0.00 76 1011.6
20240525054013 55 0 0.0 1.0 0.00 0.00 0.00 76 1011.6
20240525053514 55 0 0.0 1.0 0.00 0.00 0.00 76 1011.5
20240525053018 55 0 0.0 1.0 0.00 0.00 0.00 76 1011.7
20240525052517 55 0 0.0 0.0 0.00 0.00 0.00 75 1011.7
20240525052013 55 0 0.0 0.0 0.00 0.00 0.00 75 1011.5
20240525051519 55 0 0.0 1.0 0.00 0.00 0.00 75 1011.6
20240525051013 56 0 0.0 1.0 0.00 0.00 0.00 75 1011.5
20240525050513 56 0 0.0 1.0 0.00 0.00 0.00 75 1011.5
20240525050019 56 0 0.0 1.0 0.00 0.00 0.00 75 1011.6
20240525045513 56 224 0.0 1.0 0.00 0.00 0.00 75 1011.6
20240525045016 56 0 0.0 1.0 0.00 0.00 0.00 75 1011.5
20240525044520 56 0 0.0 1.0 0.00 0.00 0.00 75 1011.6
20240525044011 56 0 0.0 1.0 0.00 0.00 0.00 76 1011.6
20240525043513 56 0 0.0 1.0 0.00 0.00 0.00 76 1011.8
20240525043028 55 0 0.0 1.0 0.00 0.00 0.00 76 1011.7
20240525042513 55 0 0.0 1.0 0.00 0.00 0.00 76 1011.7
20240525042018 55 0 0.0 0.0 0.00 0.00 0.00 76 1011.6
20240525041533 55 0 0.0 0.0 0.00 0.00 0.00 76 1011.6
20240525041101 56 0 0.0 0.0 0.00 0.00 0.00 76 1011.5
20240525040651 56 0 0.0 0.0 0.00 0.00 0.00 76 1011.6
20240525040044 55 0 0.0 0.0 0.00 0.00 0.00 76 1011.7
20240525035516 56 0 0.0 0.0 0.00 0.00 0.00 75 1011.7
20240525035037 56 0 0.0 0.0 0.00 0.00 0.00 75 1011.7
20240525034528 56 0 0.0 0.0 0.00 0.00 0.00 75 1011.7
20240525034028 56 0 0.0 0.0 0.00 0.00 0.00 75 1011.6
20240525033605 57 0 0.0 0.0 0.00 0.00 0.00 75 1011.6
20240525033032 57 0 0.0 0.0 0.00 0.00 0.00 75 1011.5
20240525032536 57 0 0.0 0.0 0.00 0.00 0.00 75 1011.5
20240525032059 57 0 0.0 0.0 0.00 0.00 0.00 74 1011.6
20240525031526 57 0 0.0 0.0 0.00 0.00 0.00 74 1011.6
20240525031014 58 0 0.0 0.0 0.00 0.00 0.00 73 1011.5
20240525030515 58 0 0.0 0.0 0.00 0.00 0.00 73 1011.7
20240525030027 58 0 0.0 0.0 0.00 0.00 0.00 73 1011.6
20240525025515 59 0 0.0 1.0 0.00 0.00 0.00 72 1011.5
20240525025013 59 0 0.0 1.0 0.00 0.00 0.00 72 1011.5
20240525024529 59 0 0.0 1.0 0.00 0.00 0.00 72 1011.3
20240525024016 59 0 0.0 0.0 0.00 0.00 0.00 71 1011.4
20240525023517 59 0 0.0 0.0 0.00 0.00 0.00 70 1011.3
20240525023112 60 0 0.0 0.0 0.00 0.00 0.00 70 1011.2
20240525022516 59 0 0.0 0.0 0.00 0.00 0.00 71 1011.2
20240525022012 59 0 0.0 0.0 0.00 0.00 0.00 71 1011.2
20240525021525 59 0 0.0 0.0 0.00 0.00 0.00 71 1011.1
20240525021016 59 0 0.0 0.0 0.00 0.00 0.00 72 1011.1
20240525020519 59 0 0.0 0.0 0.00 0.00 0.00 71 1011.0
20240525020031 60 0 0.0 0.0 0.00 0.00 0.00 70 1011.0
20240525015514 60 0 0.0 0.0 0.00 0.00 0.00 70 1010.9
20240525015014 60 0 0.0 0.0 0.00 0.00 0.00 69 1010.9
20240525014529 60 0 0.0 0.0 0.00 0.00 0.00 69 1010.9
20240525014016 60 0 0.0 0.0 0.00 0.00 0.00 69 1010.9
20240525013514 61 0 0.0 0.0 0.00 0.00 0.00 67 1010.8
20240525013029 61 0 0.0 0.0 0.00 0.00 0.00 66 1010.6
20240525012516 61 0 0.0 0.0 0.00 0.00 0.00 67 1010.6
20240525012017 61 0 0.0 0.0 0.00 0.00 0.00 66 1010.6
20240525011520 62 0 0.0 0.0 0.00 0.00 0.00 65 1010.6
20240525011014 62 0 0.0 0.0 0.00 0.00 0.00 63 1010.6
20240525010516 63 0 0.0 0.0 0.00 0.00 0.00 61 1010.5
20240525010024 63 0 0.0 0.0 0.00 0.00 0.00 60 1010.6
20240525005517 63 0 0.0 0.0 0.00 0.00 0.00 59 1010.6
20240525005014 64 0 0.0 0.0 0.00 0.00 0.00 59 1010.4
20240525004540 65 0 0.0 0.0 0.00 0.00 0.00 58 1010.3
20240525004014 65 0 0.0 0.0 0.00 0.00 0.00 57 1010.2
20240525003514 66 0 0.0 0.0 0.00 0.00 0.00 57 1010.1
20240525003025 66 0 0.0 0.0 0.00 0.00 0.00 54 1010.1
20240525002513 66 0 0.0 0.0 0.00 0.00 0.00 53 1010.1